This is the latest recevied weather packets stored in our database for station/object KC3VCX. If no packets are shown the sender has not sent any weather packets the latest 1 day(s).
| Time | Temp. | Humidity | Pressure | Rain* | Wind** | Luminosity | Snow |
|---|---|---|---|---|---|---|---|
| 1777990718 | 20.56° C | 58% | 1010.7 hPa | 0 mm | 0.89 m/s, 204° | 457 W/m² | - |
| 1777990415 | 21.11° C | 58% | 1010.9 hPa | 0 mm | 0.89 m/s, 320° | 319 W/m² | - |
| 1777990112 | 20.56° C | 57% | 1011 hPa | 0 mm | 2.68 m/s, 302° | 425 W/m² | - |
| 1777989808 | 20.56° C | 59% | 1011.3 hPa | 0 mm | 0.89 m/s, 247° | 470 W/m² | - |
| 1777989506 | 21.11° C | 59% | 1011.3 hPa | 0 mm | 0.89 m/s, 80° | 420 W/m² | - |
| 1777989202 | 20.56° C | 57% | 1011.2 hPa | 0 mm | 2.24 m/s, 196° | 502 W/m² | - |
| 1777988898 | 20° C | 59% | 1011.1 hPa | 0 mm | 1.79 m/s, 212° | 502 W/m² | - |
| 1777988595 | 20° C | 59% | 1011.3 hPa | 0 mm | 1.79 m/s, 300° | 507 W/m² | - |
| 1777988291 | 20° C | 60% | 1011.2 hPa | 0 mm | 0.45 m/s, 210° | 469 W/m² | - |
| 1777987989 | 20° C | 59% | 1011.1 hPa | 0 mm | 1.34 m/s, 228° | 467 W/m² | - |
| 1777987684 | 19.44° C | 60% | 1011.3 hPa | 0 mm | 0.89 m/s, 44° | 425 W/m² | - |
| 1777987381 | 19.44° C | 59% | 1011.4 hPa | 0 mm | 1.79 m/s, 218° | 411 W/m² | - |
| 1777987079 | 18.89° C | 60% | 1011.2 hPa | 0 mm | 0.89 m/s, 198° | 238 W/m² | - |
| 1777986776 | 18.89° C | 60% | 1011.3 hPa | 0 mm | 2.24 m/s, 258° | 178 W/m² | - |
| 1777986473 | 18.89° C | 60% | 1011.3 hPa | 0 mm | 1.34 m/s, 172° | 383 W/m² | - |
| 1777986172 | 18.89° C | 61% | 1011.2 hPa | 0 mm | 1.79 m/s, 215° | 345 W/m² | - |
| 1777985868 | 18.89° C | 61% | 1011.3 hPa | 0 mm | 1.79 m/s, 126° | 319 W/m² | - |
| 1777985566 | 18.89° C | 61% | 1011.2 hPa | 0 mm | 1.34 m/s, 201° | 309 W/m² | - |
| 1777985262 | 18.89° C | 61% | 1011.2 hPa | 0 mm | 1.34 m/s, 147° | 279 W/m² | - |
| 1777984959 | 18.33° C | 63% | 1011.1 hPa | 0 mm | 0.89 m/s, 112° | 270 W/m² | - |
| 1777984654 | 17.78° C | 63% | 1011.2 hPa | 0 mm | 0.89 m/s, 207° | 213 W/m² | - |
| 1777984351 | 17.78° C | 62% | 1011.1 hPa | 0 mm | 2.24 m/s, 179° | 73 W/m² | - |
| 1777984048 | 18.33° C | 62% | 1011.2 hPa | 0 mm | 0.45 m/s, 170° | 94 W/m² | - |
| 1777983745 | 18.33° C | 62% | 1011.1 hPa | 0 mm | 0.89 m/s, 159° | 236 W/m² | - |
| 1777983442 | 17.78° C | 62% | 1011.2 hPa | 0 mm | 2.68 m/s, 192° | 203 W/m² | - |
* Rain latest hour (hover to see other rain measurements)
** Current wind speed in m/s (hover to see current wind gust speed)